G7GQA-4 Weather Reports


time (UTC)temp
F
wind
direction
speed
knots
gust
knots
rain 1hr
in
rain 24hr
in
rain mn
in
humidity
%
barometer
mb
20260505184025 55 327 1.7 3.5 0.00 0.00 0.00 64
20260505183025 55 300 0.9 1.7 0.00 0.00 0.00 64
20260505182025 55 304 1.7 2.6 0.00 0.00 0.00 64
20260505181025 55 306 3.5 6.1 0.00 0.00 0.00 63
20260505180025 56 311 1.7 4.3 0.00 0.00 0.00 62
20260505175025 56 348 1.7 4.3 0.00 0.00 0.00 62
20260505174024 56 346 0.9 3.5 0.00 0.00 0.00 63
20260505173025 56 310 1.7 5.2 0.00 0.00 0.00 62
20260505172025 56 314 2.6 5.2 0.00 0.00 0.00 61
20260505171026 56 323 2.6 6.1 0.00 0.00 0.00 63
20260505170024 57 37 1.7 4.3 0.00 0.00 0.00 61
20260505165025 57 302 1.7 3.5 0.00 0.00 0.00 59
20260505164025 57 311 2.6 5.2 0.00 0.00 0.00 58
20260505163025 57 294 2.6 5.2 0.00 0.00 0.00 58
20260505162025 57 312 3.5 7.0 0.00 0.00 0.00 57
20260505161025 57 314 2.6 5.2 0.00 0.00 0.00 57
20260505153024 58 308 2.6 5.2 0.00 0.00 0.00 56
20260505152024 58 301 2.6 4.3 0.00 0.00 0.00 56
20260505151024 58 309 2.6 5.2 0.00 0.00 0.00 57
20260505125022 59 320 2.6 7.8 0.00 0.00 0.00 53
20260505124022 59 318 2.6 6.1 0.00 0.00 0.00 52
20260505123023 58 314 2.6 4.3 0.00 0.00 0.00 55
20260505122022 58 327 2.6 7.0 0.00 0.00 0.00 56
20260505121022 57 349 2.6 4.3 0.00 0.00 0.00 57
20260505120023 57 329 2.6 5.2 0.00 0.00 0.00 58
20260505115022 57 327 1.7 3.5 0.00 0.00 0.00 59
20260505114022 57 318 2.6 5.2 0.00 0.00 0.00 59
20260505113023 56 327 1.7 3.5 0.00 0.00 0.00 61
20260505112023 56 310 1.7 3.5 0.00 0.00 0.00 61
20260505111023 56 339 2.6 4.3 0.00 0.00 0.00 63
20260505102022 56 352 2.6 4.3 0.00 0.00 0.00 66
20260505101022 55 323 1.7 5.2 0.00 0.00 0.00 69
20260505100022 56 39 2.6 5.2 0.00 0.00 0.00 65
20260505095022 56 331 2.6 5.2 0.00 0.00 0.00 65
20260505094022 55 326 2.6 5.2 0.00 0.00 0.00 68
20260505093022 55 325 2.6 4.3 0.00 0.00 0.00 70
20260505092022 54 320 2.6 5.2 0.00 0.00 0.00 72
20260505091022 52 308 3.5 7.0 0.00 0.00 0.00 74
20260505090022 53 315 2.6 4.3 0.00 0.00 0.00 74
20260505085022 51 313 3.5 8.7 0.00 0.00 0.00 78
20260505084021 51 308 1.7 5.2 0.00 0.00 0.00 79
20260505083021 51 306 1.7 3.5 0.00 0.00 0.00 80
20260504225521 46 0.0 0.0 0.00 0.00 0.00 93
20260504224521 47 0.0 0.0 0.00 0.02 0.00 92
20260504223521 47 0.0 0.0 0.00 0.02 0.00 92
20260504222521 48 144 0.9 1.7 0.00 0.02 0.00 92
20260504221521 47 0.0 0.0 0.00 0.02 0.00 92
20260504220522 47 0.0 0.0 0.00 0.02 0.00 92
20260504215521 48 0.0 0.0 0.00 0.03 0.00 92
20260504214521 48 0.0 0.0 0.00 0.03 0.00 92
20260504213522 48 0.0 0.0 0.00 0.05 0.00 92
20260504212522 49 0.0 0.0 0.00 0.09 0.00 91
20260504211521 49 0.0 0.0 0.00 0.13 0.00 91
20260504210522 49 0.0 0.0 0.00 0.14 0.00 91
20260504205522 49 144 0.0 1.7 0.00 0.14 0.00 91
20260504204521 50 0.0 0.0 0.00 0.14 0.00 90
20260504203522 50 0.0 0.0 0.00 0.14 0.00 90
20260504202522 50 0.0 0.0 0.00 0.14 0.00 89
20260504201522 51 0.0 0.0 0.00 0.14 0.00 88
20260504200522 52 0.0 0.0 0.00 0.14 0.00 86
20260504195522 53 0.0 0.0 0.00 0.14 0.00 84
20260504194522 54 144 0.0 1.7 0.00 0.14 0.00 83
20260504193521 54 144 0.0 1.7 0.00 0.14 0.00 82
20260504192522 55 144 0.0 1.7 0.00 0.14 0.00 81
20260504191522 56 120 0.9 1.7 0.00 0.14 0.00 80
20260504190522 56 120 1.7 2.6 0.00 0.14 0.00 79
20260504185522 57 146 1.7 3.5 0.00 0.14 0.00 77